Location: El Centro
(32.7920°N, 115.5620°W)
Time: 22:22:23
(UTC-07:00)

Hamsat - Visible Passes

Search period start: 20 October 2014 00:00
Search period end: 30 October 2014 00:00
Orbit: 592 x 629 km, 97.6° (Epoch: 20 October)

Date Brightness Start Highest point End Pass type
(mag) Time Alt. Az. Time Alt. Az. Time Alt. Az.
20 Oct ? 05:27:53 10° ENE 05:30:01 14° E 05:32:10 10° SE visible
21 Oct ? 05:41:18 10° NE 05:44:28 21° E 05:47:37 10° SE visible
22 Oct ? 05:55:08 10° NE 05:58:52 31° E 06:02:35 10° SSE visible
23 Oct ? 06:09:11 10° NNE 06:13:14 47° E 06:17:17 10° S visible
23 Oct ? 18:34:14 10° SSW 18:37:47 26° W 18:41:20 10° NW visible
24 Oct ? 06:23:22 10° NNE 06:27:34 73° E 06:31:46 10° S visible
24 Oct ? 18:49:20 10° SW 18:52:11 18° W 18:55:02 10° NW visible
25 Oct ? 19:05:09 10° WSW 19:06:36 12° W 19:08:03 10° WNW visible
26 Oct ? 05:19:13 10° E 05:20:00 10° E 05:20:48 10° ESE visible
27 Oct ? 05:31:46 10° NE 05:34:25 16° E 05:37:03 10° SE visible
28 Oct ? 05:45:21 10° NE 05:48:47 24° E 05:52:14 10° SSE visible
29 Oct ? 05:59:14 10° NNE 06:03:08 36° E 06:07:02 10° SSE visible
29 Oct ? 18:23:51 10° SSW 18:27:39 34° W 18:31:28 10° NNW visible
